date:2026-04-16T07:57:01+00:00
validtle:1
satid:43758
launchyear:2018
epoch:26102.47082344
epochday:102
tleage:4
tleclassification:U
active:1
name:MINXSS-2
meananomly:218.3491
meanmotion:15.4281
rightascension:0.0000
declination:0.0000
semimajoraxis:6815.9695788815
altitudeatperigee:432
altitudeatapogee:444
inclination:97.4573
eccentricity:0.0009197
argumentofperigree:141.8409
nickname:MINXSS-2
idesg:18099A  
cosparid:2018-099A
altkm:445.87175661254
velkms:7.6418614102415
velkmh:27511
onumepoch:40398
onumnow:623322.57
otype:1
otypedesc:Low Earth Orbit (LEO)
status:1
timestamp:2026-04-12T11:17:59+00:00
nowjuliandate:2461146.831264
nowepochdate:26106.3312615741
TLE:
MINXSS-2
1 43758U 18099A   26102.47082344  .00021075  00000+0  48193-3 0  9999
2 43758  97.4573 177.0396 0009197 141.8409 218.3491 15.42806611403986